Location: Austin
(30.3000°N, 97.7500°W)
Time: 03:10:17
(UTC-05:00)

Okean O Rocket - Pass Details

Date: 18 March 2023
Orbit: 620 x 643 km, 98.1° (Epoch: 01 April)

Event Time Altitude Azimuth Distance (km) Brightness Sun altitude
Exits shadow 21:14:59 - 178° (S) 2,751 4.7 -20.9°
Reaches altitude 10° 21:16:47 10° 182° (S) 2,027 4.1 -21.3°
Maximum altitude 21:21:05 54° 259° (W) 781 2.3 -22.2°
Drops below altitude 10° 21:25:25 10° 337° (NNW) 2,029 4.6 -23.1°
Sets 21:27:40 0° 342° (NNW) 2,937 5.5 -23.6°
